Regional Weather Roundup
Issued by NWS

Home | Current Version | Previous Version | Graphics & Text | Print | Product List | Glossary On
Versions: 1 2 3 4 5 6 7 8 9 10 11 12 13 14 15 16 17 18 19 20 21 22 23 24 25 26 27 28 29 30 31 32 33 34 35 36 37 38 39 40 41 42 43 44 45 46 47 48 49 50
000
ASUS43 KLSX 312207
RWRMO

WEATHER SUMMARY FOR MISSOURI
NATIONAL WEATHER SERVICE SPRINGFIELD MO
500 PM CDT MON AUG 31 2015

NOTE: "FAIR" INDICATES FEW OR NO CLOUDS BELOW 12,000 FEET WITH NO
       SIGNIFICANT WEATHER AND/OR OBSTRUCTIONS TO VISIBILITY.
       CURRENT SKY AND/OR WEATHER CONDITIONS ARE NOT AVAILABLE FOR
       CHILLICOTHE AND FARMINGTON.

MOZ001>031-035>038-043-044-053-054-312300-
...NORTHERN AND WESTERN MISSOURI...

CITY           SKY/WX    TMP DP  RH WIND       PRES   REMARKS
KANSAS CTY INT SUNNY     90  68  48 SW12      29.94F HX  94
KANSAS C DTWN  MOSUNNY   90  70  51 S13       29.93F HX  95
LEE`S SUMMIT   MOSUNNY   88  67  49 SW10      29.96F HX  91
ST JOSEPH      SUNNY     88  70  55 S8        29.92F HX  93
CHILLICOTHE      N/A     89  70  53 S8        29.95F HX  94
KIRKSVILLE     MOSUNNY   87  70  56 S8        29.97F HX  92

$$
MOZ066>068-077>081-088>096-101>105-312300-
...SOUTHWEST MISSOURI...

CITY           SKY/WX    TMP DP  RH WIND       PRES   REMARKS
SPRINGFIELD    SUNNY     88  67  49 S12       30.01F HX  91
JOPLIN         SUNNY     89  68  49 SW12      29.99S HX  93

$$
MOZ032>034-039>042-045>050-055>058-069>072-312300-
...CENTRAL MISSOURI...

CITY           SKY/WX    TMP DP  RH WIND       PRES   REMARKS
COLUMBIA       SUNNY     89  70  53 SW9       29.98F HX  94
JEFFERSON CITY SUNNY     92  66  42 S6        29.96F HX  94
ROLLA          SUNNY     89  68  49 S13       30.01S HX  93
SEDALIA        SUNNY     92  65  40 S8        29.98F HX  94
WHITEMAN AFB   MOSUNNY   92  68  45 SW15      29.95F HX  96
WARRENSBURG    SUNNY     90  66  45 S10       29.95S HX  92
OSAGE BEACH    SUNNY     91  66  43 S10       30.00S HX  94

$$
MOZ051-052-059>065-312300-
...EAST CENTRAL MISSOURI...

CITY           SKY/WX    TMP DP  RH WIND       PRES   REMARKS
ST LOUIS INTL  PTSUNNY   85  68  56 SE9       30.01S THUNDER
SPIRIT OF STL  CLOUDY    88  73  61 S3        29.98F HX  95
ST CHARLES     MOSUNNY   89  73  59 SE9       29.99S HX  97

$$
MOZ072>076-082>087-097>100-106>115-312300-
...SOUTH CENTRAL AND SOUTHEAST MISSOURI...

CITY           SKY/WX    TMP DP  RH WIND       PRES   REMARKS
CAPE GIRARDEAU MOSUNNY   85  69  58 S7        30.04S
FARMINGTON     SUNNY     86  72  62 S9        30.06S HX  92
POPLAR BLUFF   SUNNY     87  71  58 S9        30.02F HX  93
WEST PLAINS    MOSUNNY   87  66  49 S7        30.07S

$$



USA.gov is the U.S. government's official web portal to all federal, state and local government web resources and services.